St. Charles, IL

10:04 AM CDT on July 21, 2017 (GMT -0500)
Saint Charles County Smartt

Weather History for KSET - November, 2012

Change the Weather History Date:

Thursday, November 15, 2012

  Actual Average (KSTL) Record (KSTL)
Temperature  
Mean Temperature 40 °F -  
Max Temperature 52 °F 54 °F 81 °F (1955)
Min Temperature 28 °F 37 °F 11 °F (1940)
Degree Days  
Heating Degree Days 25    
Moisture  
Dew Point 30 °F    
Average Humidity 75    
Maximum Humidity 92    
Minimum Humidity 40    
Precipitation  
Precipitation 0.00 in - - ()
Sea Level Pressure  
Sea Level Pressure 30.37 in    
Wind  
Wind Speed 3 mph (East)    
Max Wind Speed 6 mph    
Max Gust Speed -    
Visibility 9 miles    
Events      
Averages and records for this station are not official NWS values.
T = Trace of Precipitation, MM = Missing Value Source: NWS Daily Summary

Daily Weather History Graph

Daily Weather History Graph

Search for Another Location

Airport or City:

Trip Planner

Search our weather history database for the weather conditions in past years. The results will help you decide how hot, cold, wet, or windy it might be!

Date:

Astronomy

Nov. 15, 2012 Rise Set
Actual Time 6:45 AM CST 4:47 PM CST
Civil Twilight 6:16 AM CST 5:15 PM CST
Nautical Twilight 5:44 AM CST 5:48 PM CST
Astronomical Twilight 5:12 AM CST 6:19 PM CST
Moon 8:40 AM CST (11/15) 6:39 PM CST (11/15)
Length of Visible Light 10h 59m
Length of Day
10h 02m
Waxing Crescent, 5% of the Moon is Illuminated
Nov 15
Waxing Crescent
Nov 20
First Quarter
Nov 28
Full
Dec 6
Last Quarter
Dec 13
New

Hourly Weather History & Observations

Time (CST) Temp. Windchill Dew Point Humidity Pressure Visibility Wind Dir Wind Speed Gust Speed Precip Events Conditions
12:54 AM 30.0 °F 24.1 °F 25.0 °F 82% 30.36 in 10.0 mi East 5.8 mph - N/A   Clear
1:54 AM 30.0 °F 26.5 °F 25.0 °F 82% 30.36 in 10.0 mi East 3.5 mph - N/A   Clear
2:54 AM 30.0 °F 26.5 °F 25.0 °F 82% 30.36 in 10.0 mi East 3.5 mph - N/A   Clear
3:54 AM 30.0 °F - 25.0 °F 82% 30.36 in 9.0 mi Calm Calm - N/A   Clear
4:54 AM 28.9 °F - 27.0 °F 92% 30.37 in 6.0 mi Calm Calm - N/A   Clear
5:54 AM 30.0 °F - 27.0 °F 88% 30.38 in 7.0 mi Calm Calm - N/A   Clear
6:54 AM 28.9 °F 25.2 °F 27.0 °F 92% 30.38 in 5.0 mi East 3.5 mph - N/A   Clear
7:54 AM 30.9 °F - 28.9 °F 92% 30.39 in 5.0 mi Calm Calm - N/A   Clear
8:54 AM 35.1 °F 31.0 °F 32.0 °F 89% 30.40 in 5.0 mi East 4.6 mph - N/A   Clear
10:54 AM 43.0 °F 41.3 °F 34.0 °F 71% 30.40 in 9.0 mi Variable 3.5 mph - N/A   Clear
11:54 AM 46.9 °F - 33.1 °F 59% 30.37 in 10.0 mi Calm Calm - N/A   Clear
12:54 PM 50.0 °F - 30.0 °F 46% 30.35 in 10.0 mi Calm Calm - N/A   Clear
1:54 PM 52.0 °F - 30.9 °F 45% 30.34 in 10.0 mi East 4.6 mph - N/A   Clear
2:54 PM 52.0 °F - 28.0 °F 40% 30.33 in 10.0 mi Calm Calm - N/A   Clear
3:54 PM 51.1 °F - 28.9 °F 43% 30.34 in 10.0 mi Calm Calm - N/A   Clear
4:54 PM 48.0 °F - 30.9 °F 52% 30.35 in 10.0 mi East 3.5 mph - N/A   Clear
5:54 PM 41.0 °F 38.0 °F 33.1 °F 73% 30.35 in 10.0 mi East 4.6 mph - N/A   Clear
6:54 PM 42.1 °F - 33.1 °F 70% 30.36 in 10.0 mi Calm Calm - N/A   Clear
7:54 PM 39.0 °F - 34.0 °F 82% 30.37 in 10.0 mi Calm Calm - N/A   Clear
8:54 PM 37.9 °F 35.5 °F 35.1 °F 89% 30.37 in 10.0 mi ENE 3.5 mph - N/A   Clear
9:54 PM 36.0 °F - 33.1 °F 89% 30.38 in 10.0 mi Calm Calm - N/A   Clear
10:54 PM 36.0 °F - 33.1 °F 89% 30.39 in 7.0 mi Calm Calm - N/A   Clear
11:54 PM 35.1 °F - 32.0 °F 89% 30.40 in 9.0 mi Calm Calm - N/A   Clear